Weather History for Burlington, VT

Change the Weather History Date:

Tuesday, March 25, 2014

  Actual Average Record
Temperature  
Mean Temperature 20 °F 35 °F  
Max Temperature 33 °F 44 °F 68 °F (1987)
Min Temperature 6 °F 26 °F 0 °F (1960)
Degree Days  
Heating Degree Days 45 30  
Month to date heating degree days 1119 882  
Since 1 July heating degree days 6584 6292  
Cooling Degree Days 0 0  
Month to date cooling degree days 0 0  
Year to date cooling degree days 0 0  
Moisture  
Dew Point 6 °F    
Average Humidity 54    
Maximum Humidity 76    
Minimum Humidity 32    
Precipitation  
Precipitation 0.00 in 0.07 in 0.85 in (1913)
Month to date precipitation 1.04 1.76  
Year to date precipitation 5.32 5.58  
Snow  
Snow 0.00 in 0.40 in 2.00 in (1930)
Month to date snowfall 24.9 13.8  
Since 1 July snowfall 83.2 74.6  
Snow Depth 9.00 in    
Sea Level Pressure  
Sea Level Pressure 30.03 in    
Wind  
Wind Speed 8 mph (SSE)    
Max Wind Speed 18 mph    
Max Gust Speed 24 mph    
Visibility 10 miles    
Events      
T = Trace of Precipitation, MM = Missing Value Source: NWS Daily Summary

Daily Weather History Graph

Daily Weather History Graph

Search for Another Location

Airport:

Trip Planner

Search our weather history database for the weather conditions in past years. The results will help you decide how hot, cold, wet, or windy it might be!

Date:

Astronomy

Mar. 25, 2014 Rise Set
Actual Time 6:46 AM EDT 7:11 PM EDT
Civil Twilight 6:17 AM EDT 7:40 PM EDT
Nautical Twilight 5:43 AM EDT 8:14 PM EDT
Astronomical Twilight 5:07 AM EDT 8:50 PM EDT
Moon 3:17 AM EDT (3/25) 1:27 PM EDT (3/25)
Length of Visible Light 13h 22m
Length of Day
12h 24m
Waning Crescent, 32% of the Moon is Illuminated
Mar 25
Waning Crescent
Mar 30
New
Apr 7
First Quarter
Apr 15
Full
Apr 22
Last Quarter

Hourly Weather History & Observations

Time (EDT) Temp. Windchill Dew Point Humidity Pressure Visibility Wind Dir Wind Speed Gust Speed Precip Events Conditions
12:54 AM 12.0 °F 5.9 °F 3.0 °F 67% 30.11 in 10.0 mi SSE 3.5 mph - N/A   Clear
1:54 AM 9.0 °F - 1.0 °F 70% 30.09 in 10.0 mi Calm Calm - N/A   Clear
2:54 AM 8.1 °F - 1.0 °F 73% 30.08 in 10.0 mi Calm Calm - N/A   Clear
3:54 AM 6.1 °F -0.9 °F -0.0 °F 76% 30.06 in 10.0 mi East 3.5 mph - N/A   Clear
4:54 AM 7.0 °F -1.7 °F -0.0 °F 73% 30.07 in 10.0 mi East 4.6 mph - N/A   Clear
5:54 AM 10.0 °F 3.6 °F 1.9 °F 70% 30.08 in 10.0 mi NNE 3.5 mph - N/A   Overcast
6:54 AM 15.1 °F 7.7 °F 5.0 °F 64% 30.09 in 10.0 mi WSW 4.6 mph - N/A   Mostly Cloudy
7:54 AM 17.1 °F 5.0 °F 6.1 °F 62% 30.09 in 10.0 mi South 10.4 mph - N/A   Scattered Clouds
8:54 AM 19.9 °F 7.9 °F 9.0 °F 62% 30.08 in 10.0 mi South 11.5 mph - N/A   Clear
9:54 AM 21.0 °F 9.3 °F 9.0 °F 60% 30.07 in 10.0 mi South 11.5 mph - N/A   Clear
10:54 AM 24.1 °F 13.7 °F 8.1 °F 51% 30.06 in 10.0 mi South 10.4 mph - N/A   Clear
11:54 AM 26.1 °F 15.0 °F 8.1 °F 47% 30.04 in 10.0 mi South 12.7 mph - N/A   Scattered Clouds
12:54 PM 28.0 °F 16.5 °F 8.1 °F 43% 30.04 in 10.0 mi SSW 15.0 mph - N/A   Mostly Cloudy
1:54 PM 30.0 °F 18.7 °F 9.0 °F 41% 30.02 in 10.0 mi South 16.1 mph 21.9 mph N/A   Scattered Clouds
2:54 PM 30.9 °F 20.2 °F 10.9 °F 43% 30.00 in 10.0 mi South 15.0 mph 24.2 mph N/A   Clear
3:54 PM 30.9 °F 22.2 °F 9.0 °F 40% 29.98 in 10.0 mi South 10.4 mph - N/A   Scattered Clouds
4:54 PM 32.0 °F 24.2 °F 7.0 °F 35% 29.96 in 10.0 mi South 9.2 mph - N/A   Scattered Clouds
5:54 PM 33.1 °F 24.9 °F 6.1 °F 32% 29.95 in 10.0 mi SSE 10.4 mph - N/A   Scattered Clouds
6:54 PM 32.0 °F 25.6 °F 6.1 °F 34% 29.95 in 10.0 mi SSE 6.9 mph - N/A   Clear
7:54 PM 30.9 °F 25.2 °F 6.1 °F 35% 29.96 in 10.0 mi South 5.8 mph - N/A   Clear
8:54 PM 28.0 °F 24.2 °F 7.0 °F 41% 29.96 in 10.0 mi ESE 3.5 mph - N/A   Clear
9:54 PM 25.0 °F 20.7 °F 8.1 °F 49% 29.96 in 10.0 mi ESE 3.5 mph - N/A   Clear
10:54 PM 25.0 °F 18.1 °F 7.0 °F 46% 29.96 in 10.0 mi East 5.8 mph - N/A   Clear
11:54 PM 25.0 °F 19.3 °F 8.1 °F 49% 29.95 in 10.0 mi ESE 4.6 mph - N/A   Clear